Location: Fours
(44.3167°N, 6.7000°E)
Time: 05:44:06
(UTC+00:00)

Cosmos 2218 Rocket - Pass Details

Date: 29 May 2022
Orbit: 956 x 1005 km, 82.9° (Epoch: 03 July)

Event Time Altitude Azimuth Distance (km) Brightness Sun altitude
Rises 01:17:25 0° 0° (N) 3,675 8.1 -19.7°
Reaches altitude 10° 01:20:20 10° 13° (NNE) 2,731 7.5 -19.5°
Maximum altitude 01:25:37 28° 70° (ENE) 1,764 5.8 -19.0°
Drops below altitude 10° 01:30:54 10° 128° (SE) 2,746 6.3 -18.6°
Sets 01:33:49 0° 139° (SE) 3,698 6.8 -18.3°
